VXP1181 KHVN-KJQF

Flight info

Callsign VXP1181
Flight time 1h 31m
Altitude 38000
Route JUDDS RONGE PWL BIZEX Q75 GVE AIROW NASCR1
Aircraft B738/M-SDE2E3FGHIRWXY/LB1

Departure

Time 2026-04-25 14:41
Airport Tweed New Haven Airport (KHVN)

Arrival

Time 2026-04-25 16:13
Airport Concord-Padgett Regional Airport (KJQF)
Time Latitude Longitude Altitude Speed Heading
2026-04-25 14:07 41.26857 -72.89077 16 ft 0 kts 311°
2026-04-25 14:35 41.26846 -72.89059 16 ft 3 kts 300°
2026-04-25 14:35 41.26836 -72.89032 16 ft 3 kts 288°
2026-04-25 14:36 41.26830 -72.89004 18 ft 3 kts 290°
2026-04-25 14:36 41.26822 -72.88982 17 ft 3 kts 342°
2026-04-25 14:36 41.26822 -72.88977 16 ft 0 kts 43°
2026-04-25 14:38 41.26823 -72.88975 15 ft 2 kts 43°
2026-04-25 14:38 41.26853 -72.88938 16 ft 8 kts 43°
2026-04-25 14:38 41.26904 -72.88909 15 ft 8 kts
2026-04-25 14:39 41.26958 -72.88903 15 ft 8 kts
2026-04-25 14:39 41.27012 -72.88887 16 ft 8 kts 25°
2026-04-25 14:39 41.27052 -72.88849 16 ft 0 kts 38°
2026-04-25 14:40 41.27053 -72.88848 17 ft 2 kts 38°
2026-04-25 14:40 41.27094 -72.88799 18 ft 13 kts 50°
2026-04-25 14:40 41.27049 -72.88728 16 ft 15 kts 183°
2026-04-25 14:41 41.26851 -72.88740 15 ft 63 kts 183°
2026-04-25 14:41 41.26127 -72.88783 18 ft 142 kts 183°
2026-04-25 14:41 41.24949 -72.88873 225 ft 191 kts 180°
2026-04-25 14:41 41.23593 -72.88978 1247 ft 197 kts 179°
2026-04-25 14:42 41.22145 -72.89067 1895 ft 225 kts 180°
2026-04-25 14:42 41.21623 -72.89105 1994 ft 225 kts 180°
2026-04-25 14:42 41.19185 -72.88899 2882 ft 191 kts 155°
2026-04-25 14:42 41.18056 -72.87989 3437 ft 199 kts 137°
2026-04-25 14:43 41.17185 -72.86493 4242 ft 211 kts 123°
2026-04-25 14:43 41.16376 -72.84703 4632 ft 243 kts 117°
2026-04-25 14:43 41.15574 -72.82595 5065 ft 264 kts 117°
2026-04-25 14:43 41.14728 -72.80376 5691 ft 273 kts 116°
2026-04-25 14:44 41.13840 -72.78105 6402 ft 281 kts 116°
2026-04-25 14:44 41.12917 -72.75797 7121 ft 285 kts 117°
2026-04-25 14:44 41.11699 -72.73689 7764 ft 294 kts 141°
2026-04-25 14:44 41.09914 -72.72446 8401 ft 298 kts 168°
2026-04-25 14:45 41.07861 -72.72317 9065 ft 297 kts 195°
2026-04-25 14:45 41.05988 -72.73342 9753 ft 291 kts 221°
2026-04-25 14:45 41.04627 -72.75244 9975 ft 282 kts 245°
2026-04-25 14:45 41.04059 -72.77649 10003 ft 271 kts 272°
2026-04-25 14:46 41.04366 -72.80054 10006 ft 265 kts 292°
2026-04-25 14:46 41.05079 -72.82306 9991 ft 265 kts 296°
2026-04-25 14:46 41.05842 -72.84524 9997 ft 265 kts 296°
2026-04-25 14:46 41.06617 -72.86741 9990 ft 266 kts 297°
2026-04-25 14:47 41.07397 -72.88962 9994 ft 266 kts 297°
2026-04-25 14:47 41.07913 -72.90427 9993 ft 266 kts 297°
2026-04-25 14:47 41.08962 -72.93400 9991 ft 265 kts 297°
2026-04-25 14:47 41.09745 -72.95613 9973 ft 265 kts 296°
2026-04-25 14:48 41.10532 -72.97782 9996 ft 265 kts 297°
2026-04-25 14:48 41.11353 -73.00020 10105 ft 278 kts 297°
2026-04-25 14:48 41.12236 -73.02416 10292 ft 301 kts 297°
2026-04-25 14:48 41.13192 -73.04999 10455 ft 323 kts 297°
2026-04-25 14:49 41.14217 -73.07760 10616 ft 344 kts 297°
2026-04-25 14:49 41.15298 -73.10672 10869 ft 359 kts 297°
2026-04-25 14:49 41.16410 -73.13678 11428 ft 365 kts 297°
2026-04-25 14:49 41.17528 -73.16719 12114 ft 366 kts 297°
2026-04-25 14:50 41.18642 -73.19770 12782 ft 369 kts 297°
2026-04-25 14:50 41.19784 -73.22917 13449 ft 371 kts 297°
2026-04-25 14:50 41.20879 -73.25951 14067 ft 374 kts 297°
2026-04-25 14:50 41.21988 -73.29028 14660 ft 375 kts 297°
2026-04-25 14:51 41.23128 -73.32157 15193 ft 379 kts 296°
2026-04-25 14:51 41.24303 -73.35304 15731 ft 382 kts 296°
2026-04-25 14:51 41.25486 -73.38470 16319 ft 383 kts 292°
2026-04-25 14:51 41.26052 -73.41917 16872 ft 385 kts 270°
2026-04-25 14:52 41.25573 -73.45426 16957 ft 389 kts 252°
2026-04-25 14:52 41.24364 -73.48665 16963 ft 397 kts 240°
2026-04-25 14:52 41.22753 -73.51649 16983 ft 398 kts 238°
2026-04-25 14:52 41.21667 -73.53614 16973 ft 398 kts 237°
2026-04-25 14:53 41.19471 -73.57578 16958 ft 398 kts 237°
2026-04-25 14:53 41.17841 -73.60532 16957 ft 398 kts 237°
2026-04-25 14:53 41.16228 -73.63471 16975 ft 398 kts 238°
2026-04-25 14:53 41.14603 -73.66444 16958 ft 399 kts 237°
2026-04-25 14:54 41.12974 -73.69431 16960 ft 399 kts 237°
2026-04-25 14:54 41.11349 -73.72412 16960 ft 399 kts 237°
2026-04-25 14:54 41.09721 -73.75402 16962 ft 399 kts 237°
2026-04-25 14:54 41.08098 -73.78379 16966 ft 399 kts 237°
2026-04-25 14:55 41.06471 -73.81362 16971 ft 399 kts 237°
2026-04-25 14:55 41.04847 -73.84335 16963 ft 400 kts 237°
2026-04-25 14:55 41.03211 -73.87329 16962 ft 400 kts 237°
2026-04-25 14:55 41.01576 -73.90318 16971 ft 400 kts 237°
2026-04-25 14:56 40.99907 -73.93366 16970 ft 400 kts 237°
2026-04-25 14:56 40.98312 -73.96277 16975 ft 400 kts 237°
2026-04-25 14:56 40.96693 -73.99226 16979 ft 401 kts 237°
2026-04-25 14:56 40.95052 -74.02215 16956 ft 401 kts 237°
2026-04-25 14:57 40.93414 -74.05194 16964 ft 402 kts 237°
2026-04-25 14:57 40.91757 -74.08206 17329 ft 406 kts 237°
2026-04-25 14:57 40.90101 -74.11212 17960 ft 405 kts 237°
2026-04-25 14:57 40.88438 -74.14228 18484 ft 407 kts 237°
2026-04-25 14:58 40.86761 -74.17267 18924 ft 409 kts 237°
2026-04-25 14:58 40.85081 -74.20310 19342 ft 411 kts 237°
2026-04-25 14:58 40.83388 -74.23373 19716 ft 415 kts 238°
2026-04-25 14:58 40.81682 -74.26456 20100 ft 418 kts 238°
2026-04-25 14:59 40.79963 -74.29560 20501 ft 421 kts 238°
2026-04-25 14:59 40.78225 -74.32694 20895 ft 424 kts 238°
2026-04-25 14:59 40.76479 -74.35838 21242 ft 427 kts 238°
2026-04-25 14:59 40.74712 -74.39018 21568 ft 432 kts 238°
2026-04-25 15:00 40.72927 -74.42229 21895 ft 436 kts 238°
2026-04-25 15:00 40.71150 -74.45420 22290 ft 437 kts 238°
2026-04-25 15:00 40.69346 -74.48654 22543 ft 441 kts 238°
2026-04-25 15:00 40.67527 -74.51912 22858 ft 444 kts 238°
2026-04-25 15:01 40.65691 -74.55198 23220 ft 445 kts 238°
2026-04-25 15:01 40.63849 -74.58491 23565 ft 447 kts 238°
2026-04-25 15:01 40.61998 -74.61797 23847 ft 449 kts 238°
2026-04-25 15:01 40.60139 -74.65114 24153 ft 451 kts 238°
2026-04-25 15:02 40.58276 -74.68434 24485 ft 451 kts 238°
2026-04-25 15:02 40.56411 -74.71753 24801 ft 452 kts 238°
2026-04-25 15:02 40.54541 -74.75080 25086 ft 453 kts 238°
2026-04-25 15:02 40.52662 -74.78417 25314 ft 456 kts 238°
2026-04-25 15:03 40.50770 -74.81777 25592 ft 458 kts 238°
2026-04-25 15:03 40.48879 -74.85129 25917 ft 457 kts 238°
2026-04-25 15:03 40.46990 -74.88474 26371 ft 453 kts 238°
2026-04-25 15:03 40.45141 -74.91745 26871 ft 450 kts 239°
2026-04-25 15:04 40.43262 -74.95064 27318 ft 447 kts 239°
2026-04-25 15:04 40.41371 -74.98306 27723 ft 448 kts 235°
2026-04-25 15:04 40.39289 -75.01352 28128 ft 449 kts 233°
2026-04-25 15:04 40.37153 -75.04306 28558 ft 447 kts 232°
2026-04-25 15:05 40.34995 -75.07253 28938 ft 447 kts 232°
2026-04-25 15:05 40.32849 -75.10194 29370 ft 445 kts 232°
2026-04-25 15:05 40.30721 -75.13134 29879 ft 442 kts 232°
2026-04-25 15:06 40.26535 -75.18965 30697 ft 438 kts 233°
2026-04-25 15:06 40.24451 -75.21879 30942 ft 439 kts 233°
2026-04-25 15:06 40.22361 -75.24802 31197 ft 440 kts 233°
2026-04-25 15:06 40.20302 -75.27675 31498 ft 438 kts 233°
2026-04-25 15:07 40.18217 -75.30580 31814 ft 437 kts 233°
2026-04-25 15:07 40.16135 -75.33479 32077 ft 437 kts 233°
2026-04-25 15:07 40.14053 -75.36374 32343 ft 437 kts 233°
2026-04-25 15:07 40.11968 -75.39267 32647 ft 436 kts 233°
2026-04-25 15:08 40.09893 -75.42140 32955 ft 435 kts 233°
2026-04-25 15:08 40.07815 -75.45013 33258 ft 433 kts 233°
2026-04-25 15:08 40.05748 -75.47869 33602 ft 431 kts 233°
2026-04-25 15:08 40.04358 -75.49789 33815 ft 430 kts 233°
2026-04-25 15:09 40.02333 -75.52586 34076 ft 430 kts 233°
2026-04-25 15:09 40.00280 -75.55421 34292 ft 430 kts 233°
2026-04-25 15:09 39.96164 -75.61096 34651 ft 431 kts 233°
2026-04-25 15:10 39.94105 -75.63929 34886 ft 430 kts 233°
2026-04-25 15:10 39.92055 -75.66750 35113 ft 429 kts 234°
2026-04-25 15:10 39.88254 -75.72668 35485 ft 425 kts 238°
2026-04-25 15:11 39.86409 -75.75696 35699 ft 425 kts 238°
2026-04-25 15:11 39.84564 -75.78679 35873 ft 424 kts 237°
2026-04-25 15:11 39.82698 -75.81667 36061 ft 425 kts 237°
2026-04-25 15:12 39.78964 -75.87617 36427 ft 424 kts 237°
2026-04-25 15:12 39.77119 -75.90554 36605 ft 424 kts 237°
2026-04-25 15:12 39.75233 -75.93555 36788 ft 424 kts 237°
2026-04-25 15:12 39.74004 -75.95509 36892 ft 424 kts 237°
2026-04-25 15:13 39.71509 -75.99476 37124 ft 423 kts 237°
2026-04-25 15:13 39.67804 -76.05359 37431 ft 423 kts 237°
2026-04-25 15:13 39.65940 -76.08313 37592 ft 423 kts 237°
2026-04-25 15:14 39.64079 -76.11263 37734 ft 423 kts 237°
2026-04-25 15:14 39.62215 -76.14213 37894 ft 422 kts 237°
2026-04-25 15:14 39.60355 -76.17150 38007 ft 422 kts 237°
2026-04-25 15:15 39.56579 -76.22981 38011 ft 422 kts 236°
2026-04-25 15:15 39.52791 -76.28744 38005 ft 419 kts 236°
2026-04-25 15:16 39.49029 -76.34485 38000 ft 417 kts 236°
2026-04-25 15:16 39.43202 -76.42843 38001 ft 418 kts 231°
2026-04-25 15:17 39.37044 -76.50797 38012 ft 417 kts 231°
2026-04-25 15:18 39.32947 -76.56114 38014 ft 417 kts 231°
2026-04-25 15:18 39.26842 -76.64070 37980 ft 418 kts 231°
2026-04-25 15:19 39.23440 -76.68499 37978 ft 418 kts 231°
2026-04-25 15:19 39.18641 -76.74735 37983 ft 419 kts 231°
2026-04-25 15:20 39.14527 -76.80072 38003 ft 420 kts 231°
2026-04-25 15:20 39.10397 -76.85419 37999 ft 421 kts 231°
2026-04-25 15:21 39.06261 -76.90764 37970 ft 422 kts 231°
2026-04-25 15:21 39.02145 -76.96076 37984 ft 422 kts 231°
2026-04-25 15:22 38.98006 -77.01406 37980 ft 421 kts 231°
2026-04-25 15:22 38.93861 -77.06732 37960 ft 421 kts 231°
2026-04-25 15:23 38.89724 -77.12042 37965 ft 420 kts 231°
2026-04-25 15:23 38.85588 -77.17344 37946 ft 420 kts 230°
2026-04-25 15:24 38.81462 -77.22622 37940 ft 419 kts 230°
2026-04-25 15:24 38.78033 -77.27005 37937 ft 418 kts 230°
2026-04-25 15:25 38.73245 -77.33112 37938 ft 417 kts 230°
2026-04-25 15:25 38.68995 -77.38205 37969 ft 419 kts 227°
2026-04-25 15:26 38.64639 -77.43162 37947 ft 419 kts 227°
2026-04-25 15:26 38.60301 -77.48112 37968 ft 418 kts 227°
2026-04-25 15:27 38.55970 -77.53087 37963 ft 418 kts 227°
2026-04-25 15:28 38.49480 -77.60553 37963 ft 419 kts 227°
2026-04-25 15:28 38.45173 -77.65499 37950 ft 419 kts 227°
2026-04-25 15:29 38.40833 -77.70475 37953 ft 420 kts 227°
2026-04-25 15:29 38.36479 -77.75457 37951 ft 420 kts 226°
2026-04-25 15:30 38.32124 -77.80431 37948 ft 421 kts 226°
2026-04-25 15:30 38.27760 -77.85409 37940 ft 422 kts 226°
2026-04-25 15:31 38.23417 -77.90353 37942 ft 421 kts 226°
2026-04-25 15:31 38.19045 -77.95322 37942 ft 422 kts 226°
2026-04-25 15:32 38.14672 -78.00284 37938 ft 422 kts 226°
2026-04-25 15:32 38.10292 -78.05248 37936 ft 422 kts 226°
2026-04-25 15:33 38.03717 -78.12683 37917 ft 422 kts 226°
2026-04-25 15:33 37.99520 -78.17778 37931 ft 418 kts 232°
2026-04-25 15:34 37.95674 -78.23298 37908 ft 418 kts 233°
2026-04-25 15:34 37.92498 -78.27908 37908 ft 418 kts 233°
2026-04-25 15:35 37.86060 -78.37117 37902 ft 419 kts 232°
2026-04-25 15:36 37.80265 -78.45328 37888 ft 419 kts 232°
2026-04-25 15:36 37.76380 -78.50817 37889 ft 419 kts 232°
2026-04-25 15:37 37.72495 -78.56298 37892 ft 419 kts 232°
2026-04-25 15:37 37.68613 -78.61767 37894 ft 418 kts 232°
2026-04-25 15:38 37.64724 -78.67236 37891 ft 419 kts 232°
2026-04-25 15:38 37.60855 -78.72669 37879 ft 419 kts 232°
2026-04-25 15:39 37.56961 -78.78126 37889 ft 419 kts 232°
2026-04-25 15:39 37.53059 -78.83586 37880 ft 419 kts 232°
2026-04-25 15:40 37.49812 -78.88123 37883 ft 419 kts 232°
2026-04-25 15:40 37.45242 -78.94496 37891 ft 420 kts 232°
2026-04-25 15:41 37.41353 -78.99911 37895 ft 420 kts 231°
2026-04-25 15:41 37.37432 -79.05361 37911 ft 420 kts 231°
2026-04-25 15:42 37.33506 -79.10809 37921 ft 421 kts 231°
2026-04-25 15:42 37.29571 -79.16261 37914 ft 421 kts 231°
2026-04-25 15:43 37.25633 -79.21708 37869 ft 421 kts 231°
2026-04-25 15:43 37.21795 -79.27239 37845 ft 420 kts 234°
2026-04-25 15:44 37.18135 -79.32883 37862 ft 420 kts 234°
2026-04-25 15:44 37.14449 -79.38557 37868 ft 420 kts 234°
2026-04-25 15:45 37.10736 -79.44214 37864 ft 420 kts 234°
2026-04-25 15:45 37.07641 -79.48902 37877 ft 420 kts 233°
2026-04-25 15:46 37.03280 -79.55494 37878 ft 421 kts 233°
2026-04-25 15:46 36.99547 -79.61126 37859 ft 421 kts 233°
2026-04-25 15:47 36.95828 -79.66726 37867 ft 421 kts 233°
2026-04-25 15:47 36.92083 -79.72358 37872 ft 421 kts 233°
2026-04-25 15:48 36.88331 -79.77991 37883 ft 421 kts 233°
2026-04-25 15:48 36.84576 -79.83621 37900 ft 422 kts 233°
2026-04-25 15:49 36.80840 -79.89211 37907 ft 422 kts 233°
2026-04-25 15:49 36.77079 -79.94830 37921 ft 422 kts 233°
2026-04-25 15:50 36.72965 -80.00059 37916 ft 431 kts 214°
2026-04-25 15:50 36.70213 -80.01593 37932 ft 438 kts 201°
2026-04-25 15:50 36.67188 -80.02240 37941 ft 448 kts 185°
2026-04-25 15:51 36.64042 -80.02143 37513 ft 458 kts 181°
2026-04-25 15:51 36.61927 -80.01983 37191 ft 459 kts 181°
2026-04-25 15:51 36.57684 -80.01586 36446 ft 457 kts 180°
2026-04-25 15:51 36.54518 -80.01289 35870 ft 456 kts 180°
2026-04-25 15:52 36.51391 -80.01018 35257 ft 456 kts 181°
2026-04-25 15:52 36.48221 -80.00765 34650 ft 457 kts 181°
2026-04-25 15:52 36.45045 -80.00528 34031 ft 458 kts 181°
2026-04-25 15:52 36.41860 -80.00299 33316 ft 460 kts 181°
2026-04-25 15:53 36.38663 -80.00072 32614 ft 461 kts 181°
2026-04-25 15:53 36.35457 -79.99844 31915 ft 462 kts 181°
2026-04-25 15:53 36.32240 -79.99616 31194 ft 463 kts 180°
2026-04-25 15:53 36.29020 -79.99386 30485 ft 465 kts 180°
2026-04-25 15:54 36.25777 -79.99154 29723 ft 468 kts 180°
2026-04-25 15:54 36.22514 -79.98921 28763 ft 472 kts 180°
2026-04-25 15:54 36.19235 -79.98686 27909 ft 473 kts 180°
2026-04-25 15:54 36.15942 -79.98450 27043 ft 474 kts 179°
2026-04-25 15:55 36.12687 -79.98217 26175 ft 476 kts 179°
2026-04-25 15:55 36.09397 -79.97995 25526 ft 472 kts 181°
2026-04-25 15:55 36.06161 -79.98314 24867 ft 464 kts 194°
2026-04-25 15:55 36.03123 -79.99543 24248 ft 457 kts 205°
2026-04-25 15:56 36.00374 -80.01463 23601 ft 453 kts 217°
2026-04-25 15:56 35.97912 -80.03867 22878 ft 449 kts 219°
2026-04-25 15:56 35.95482 -80.06267 22207 ft 445 kts 219°
2026-04-25 15:56 35.93073 -80.08627 21568 ft 441 kts 219°
2026-04-25 15:57 35.90669 -80.10959 20939 ft 437 kts 219°
2026-04-25 15:57 35.88289 -80.13250 20331 ft 433 kts 219°
2026-04-25 15:57 35.85922 -80.15518 19718 ft 430 kts 219°
2026-04-25 15:57 35.83563 -80.17772 19132 ft 426 kts 219°
2026-04-25 15:58 35.81228 -80.20001 18542 ft 424 kts 219°
2026-04-25 15:58 35.78938 -80.22185 17884 ft 421 kts 219°
2026-04-25 15:58 35.76630 -80.24387 17237 ft 418 kts 219°
2026-04-25 15:58 35.74338 -80.26571 16640 ft 414 kts 219°
2026-04-25 15:59 35.72075 -80.28727 16048 ft 410 kts 219°
2026-04-25 15:59 35.69831 -80.30863 15461 ft 406 kts 219°
2026-04-25 15:59 35.67609 -80.32977 14887 ft 403 kts 219°
2026-04-25 15:59 35.65393 -80.35082 14284 ft 401 kts 219°
2026-04-25 16:00 35.63206 -80.37157 13977 ft 392 kts 219°
2026-04-25 16:00 35.62507 -80.37820 13900 ft 389 kts 219°
2026-04-25 16:00 35.58992 -80.41151 13216 ft 382 kts 219°
2026-04-25 16:00 35.56904 -80.43129 12837 ft 373 kts 219°
2026-04-25 16:01 35.54908 -80.45019 12560 ft 354 kts 219°
2026-04-25 16:01 35.52984 -80.46840 12046 ft 345 kts 218°
2026-04-25 16:01 35.51120 -80.48604 11805 ft 329 kts 219°
2026-04-25 16:01 35.49350 -80.50279 11564 ft 315 kts 218°
2026-04-25 16:02 35.47640 -80.51893 11284 ft 305 kts 218°
2026-04-25 16:02 35.45991 -80.53449 11044 ft 294 kts 218°
2026-04-25 16:02 35.44294 -80.54771 10819 ft 283 kts 201°
2026-04-25 16:02 35.42435 -80.55387 10620 ft 275 kts 193°
2026-04-25 16:03 35.40577 -80.55837 10346 ft 275 kts 192°
2026-04-25 16:03 35.38709 -80.56265 10102 ft 273 kts 192°
2026-04-25 16:03 35.36855 -80.56692 9995 ft 266 kts 193°
2026-04-25 16:03 35.35047 -80.57109 9942 ft 264 kts 193°
2026-04-25 16:04 35.33262 -80.57536 9874 ft 257 kts 193°
2026-04-25 16:04 35.31543 -80.57948 9806 ft 248 kts 193°
2026-04-25 16:04 35.29878 -80.58351 9740 ft 242 kts 194°
2026-04-25 16:04 35.28230 -80.58751 9692 ft 241 kts 193°
2026-04-25 16:05 35.26583 -80.59150 9645 ft 244 kts 193°
2026-04-25 16:05 35.24920 -80.59552 9601 ft 244 kts 193°
2026-04-25 16:05 35.21626 -80.60352 9485 ft 241 kts 193°
2026-04-25 16:06 35.19976 -80.60753 9447 ft 245 kts 193°
2026-04-25 16:06 35.18301 -80.61160 9278 ft 249 kts 193°
2026-04-25 16:06 35.16599 -80.61609 8968 ft 246 kts 201°
2026-04-25 16:06 35.15242 -80.62729 8625 ft 233 kts 233°
2026-04-25 16:07 35.14524 -80.64451 8289 ft 227 kts 255°
2026-04-25 16:07 35.14413 -80.65085 8185 ft 226 kts 261°
2026-04-25 16:07 35.14771 -80.68254 7503 ft 233 kts 287°
2026-04-25 16:07 35.15331 -80.70119 7017 ft 234 kts 288°
2026-04-25 16:08 35.15898 -80.71960 6558 ft 235 kts 289°
2026-04-25 16:08 35.16534 -80.73802 6061 ft 236 kts 291°
2026-04-25 16:08 35.17204 -80.75641 5563 ft 237 kts 291°
2026-04-25 16:08 35.17972 -80.77420 5065 ft 238 kts 308°
2026-04-25 16:09 35.19380 -80.78335 4939 ft 231 kts 353°
2026-04-25 16:09 35.20913 -80.77975 4805 ft 221 kts 20°
2026-04-25 16:09 35.22243 -80.77061 4465 ft 220 kts 31°
2026-04-25 16:09 35.23530 -80.76043 4053 ft 218 kts 30°
2026-04-25 16:10 35.24803 -80.75101 3782 ft 213 kts 29°
2026-04-25 16:10 35.26050 -80.74173 3439 ft 212 kts 29°
2026-04-25 16:10 35.27355 -80.73367 3054 ft 213 kts
2026-04-25 16:10 35.28770 -80.73150 3048 ft 200 kts
2026-04-25 16:11 35.30124 -80.72828 2837 ft 194 kts
2026-04-25 16:11 35.31428 -80.72526 2619 ft 186 kts
2026-04-25 16:11 35.32659 -80.72262 2370 ft 175 kts
2026-04-25 16:11 35.33843 -80.72004 2031 ft 174 kts
2026-04-25 16:12 35.34985 -80.71746 1812 ft 162 kts
2026-04-25 16:12 35.36092 -80.71526 1321 ft 159 kts
2026-04-25 16:12 35.37171 -80.71283 816 ft 160 kts 12°
2026-04-25 16:12 35.37529 -80.71194 773 ft 153 kts 10°
2026-04-25 16:13 35.38997 -80.70863 667 ft 83 kts 10°
2026-04-25 16:13 35.39426 -80.70766 664 ft 52 kts 11°
2026-04-25 16:13 35.39605 -80.70799 664 ft 15 kts 285°
2026-04-25 16:13 35.39546 -80.70876 668 ft 15 kts 191°
2026-04-25 16:14 35.39448 -80.70900 667 ft 14 kts 190°
2026-04-25 16:14 35.39353 -80.70921 667 ft 13 kts 191°
2026-04-25 16:14 35.39264 -80.70941 668 ft 13 kts 190°
2026-04-25 16:14 35.39174 -80.70961 669 ft 14 kts 191°
2026-04-25 16:15 35.39071 -80.70983 668 ft 17 kts 191°
2026-04-25 16:15 35.38950 -80.71013 667 ft 19 kts 191°
2026-04-25 16:15 35.38812 -80.71043 666 ft 21 kts 190°
2026-04-25 16:15 35.38662 -80.71077 666 ft 22 kts 191°
2026-04-25 16:16 35.38511 -80.71111 668 ft 22 kts 191°
2026-04-25 16:16 35.38365 -80.71144 667 ft 21 kts 190°
2026-04-25 16:16 35.38222 -80.71175 669 ft 20 kts 190°
2026-04-25 16:16 35.38089 -80.71206 669 ft 19 kts 191°
2026-04-25 16:17 35.37985 -80.71229 667 ft 11 kts 191°
2026-04-25 16:17 35.37955 -80.71291 666 ft 10 kts 287°
2026-04-25 16:17 35.37983 -80.71328 666 ft 2 kts 323°
2026-04-25 16:17 35.37990 -80.71334 666 ft 0 kts 325°